Hourly Weather Barra do Garcas

Today, 19 April, Monday

Time Temperature Precipitation Wind Pressure Humidity
00:00 +22°C° 0 mm 0 mps 727 mmHg 80%
01:00 +22°C° 0 mm 0 mps 727 mmHg 81%
02:00 +21°C° 0 mm 0 mps 727 mmHg 83%
03:00 +21°C° 0 mm 0 mps 727 mmHg 84%
04:00 +21°C° 0 mm 0 mps 727 mmHg 85%
05:00 +20°C° 0 mm 0 mps 727 mmHg 87%
06:00 +20°C° 0 mm 0 mps 727 mmHg 88%
07:00 +22°C° 0 mm 0 mps 728 mmHg 83%
08:00 +23°C° 0 mm 0 mps 728 mmHg 77%
09:00 +25°C° 0 mm 0 mps 729 mmHg 72%
10:00 +27°C° 0 mm 0 mps 729 mmHg 65%
11:00 +29°C° 0 mm 0 mps 729 mmHg 59%
12:00 +31°C° 0 mm 0 mps 729 mmHg 52%
13:00 +33°C° 0 mm 1 mps 728 mmHg 49%
14:00 +33°C° 0 mm 1 mps 727 mmHg 46%
15:00 +34°C° 0 mm 1 mps 726 mmHg 43%
16:00 +32°C° 0 mm 1 mps 726 mmHg 51%
17:00 +30°C° 0 mm 1 mps 726 mmHg 58%
18:00 +28°C° 0 mm 1 mps 726 mmHg 65%
19:00 +27°C° 0.3 mm 1 mps 726 mmHg 70%
20:00 +26°C° 0.3 mm 1 mps 727 mmHg 75%
21:00 +25°C° 0.3 mm 1 mps 727 mmHg 79%
22:00 +24°C° 0 mm 1 mps 727 mmHg 80%
23:00 +22°C° 0 mm 0 mps 727 mmHg 82%

Tomorrow, 20 April, Tuesday

Time Temperature Precipitation Wind Pressure Humidity
00:00 +21°C° 0 mm 0 mps 728 mmHg 83%
01:00 +21°C° 0 mm 0 mps 727 mmHg 84%
02:00 +23°C° 0 mm 1 mps 727 mmHg 86%
03:00 +22°C° 0 mm 1 mps 726 mmHg 87%
04:00 +22°C° 0.1 mm 1 mps 727 mmHg 89%
05:00 +22°C° 0.1 mm 1 mps 727 mmHg 90%
06:00 +22°C° 0.1 mm 1 mps 727 mmHg 91%
07:00 +23°C° 0 mm 1 mps 728 mmHg 85%
08:00 +23°C° 0 mm 0 mps 728 mmHg 80%
09:00 +24°C° 0 mm 0 mps 729 mmHg 74%
10:00 +26°C° 0.1 mm 0 mps 729 mmHg 67%
11:00 +28°C° 0.1 mm 0 mps 729 mmHg 59%
12:00 +32°C° 0.1 mm 1 mps 729 mmHg 52%
13:00 +33°C° 0 mm 1 mps 728 mmHg 49%
14:00 +33°C° 0 mm 1 mps 727 mmHg 47%
15:00 +33°C° 0 mm 1 mps 727 mmHg 44%
16:00 +32°C° 0 mm 1 mps 726 mmHg 51%
17:00 +30°C° 0 mm 1 mps 726 mmHg 57%
18:00 +28°C° 0 mm 2 mps 726 mmHg 64%
19:00 +27°C° 0.2 mm 1 mps 726 mmHg 70%
20:00 +25°C° 0.2 mm 1 mps 727 mmHg 76%
21:00 +24°C° 0.2 mm 1 mps 727 mmHg 81%
22:00 +24°C° 0 mm 1 mps 727 mmHg 82%
23:00 +23°C° 0 mm 1 mps 727 mmHg 83%

Day after tomorrow, 21 April, Wednesday

Time Temperature Precipitation Wind Pressure Humidity
00:00 +21°C° 0 mm 0 mps 727 mmHg 84%
01:00 +21°C° 0 mm 0 mps 727 mmHg 84%
02:00 +23°C° 0 mm 1 mps 727 mmHg 85%
03:00 +22°C° 0 mm 1 mps 726 mmHg 86%
04:00 +22°C° 0 mm 1 mps 727 mmHg 87%
05:00 +22°C° 0 mm 1 mps 727 mmHg 87%
06:00 +19°C° 0 mm 0 mps 727 mmHg 88%
07:00 +23°C° 0 mm 1 mps 728 mmHg 80%
08:00 +25°C° 0 mm 1 mps 728 mmHg 73%
09:00 +27°C° 0 mm 1 mps 729 mmHg 65%
10:00 +28°C° 0 mm 1 mps 729 mmHg 58%
11:00 +30°C° 0 mm 1 mps 729 mmHg 50%
12:00 +32°C° 0 mm 1 mps 729 mmHg 43%
13:00 +32°C° 0 mm 1 mps 728 mmHg 42%
14:00 +32°C° 0 mm 1 mps 727 mmHg 42%
15:00 +33°C° 0 mm 1 mps 726 mmHg 41%
16:00 +31°C° 0 mm 1 mps 726 mmHg 47%
17:00 +30°C° 0 mm 1 mps 726 mmHg 54%
18:00 +28°C° 0 mm 1 mps 726 mmHg 60%
19:00 +27°C° 0 mm 1 mps 727 mmHg 61%
20:00 +26°C° 0 mm 1 mps 727 mmHg 62%
21:00 +23°C° 0 mm 0 mps 728 mmHg 62%
22:00 +23°C° 0 mm 0 mps 728 mmHg 64%
23:00 +22°C° 0 mm 0 mps 728 mmHg 65%

22 April, Thursday

Time Temperature Precipitation Wind Pressure Humidity
00:00 +22°C° 0 mm 0 mps 728 mmHg 67%
01:00 +21°C° 0 mm 0 mps 727 mmHg 69%
02:00 +21°C° 0 mm 0 mps 727 mmHg 72%
03:00 +20°C° 0 mm 0 mps 727 mmHg 74%
04:00 +20°C° 0 mm 0 mps 727 mmHg 76%
05:00 +19°C° 0 mm 0 mps 727 mmHg 78%
06:00 +21°C° 0 mm 1 mps 727 mmHg 79%
07:00 +23°C° 0 mm 1 mps 728 mmHg 75%
08:00 +25°C° 0 mm 1 mps 729 mmHg 71%
09:00 +26°C° 0 mm 1 mps 729 mmHg 67%
10:00 +28°C° 0 mm 1 mps 729 mmHg 62%
11:00 +30°C° 0 mm 1 mps 729 mmHg 58%
12:00 +32°C° 0 mm 1 mps 729 mmHg 53%
13:00 +32°C° 0 mm 1 mps 729 mmHg 49%
14:00 +33°C° 0 mm 1 mps 728 mmHg 45%
15:00 +33°C° 0 mm 1 mps 727 mmHg 41%
16:00 +31°C° 0 mm 1 mps 727 mmHg 47%
17:00 +30°C° 0 mm 1 mps 727 mmHg 53%
18:00 +28°C° 0 mm 1 mps 727 mmHg 58%
19:00 +27°C° 0 mm 1 mps 727 mmHg 59%
20:00 +26°C° 0 mm 1 mps 727 mmHg 59%
21:00 +23°C° 0 mm 0 mps 728 mmHg 59%
22:00 +23°C° 0 mm 0 mps 728 mmHg 61%
23:00 +22°C° 0 mm 0 mps 728 mmHg 62%

23 April, Friday

Time Temperature Precipitation Wind Pressure Humidity
00:00 +22°C° 0 mm 0 mps 728 mmHg 64%
01:00 +21°C° 0 mm 0 mps 728 mmHg 66%
02:00 +21°C° 0 mm 0 mps 728 mmHg 67%
03:00 +20°C° 0 mm 0 mps 727 mmHg 69%
04:00 +20°C° 0 mm 0 mps 728 mmHg 71%
05:00 +19°C° 0 mm 0 mps 728 mmHg 73%
06:00 +19°C° 0 mm 0 mps 728 mmHg 75%
07:00 +23°C° 0 mm 1 mps 729 mmHg 70%
08:00 +25°C° 0 mm 1 mps 729 mmHg 66%
09:00 +27°C° 0 mm 1 mps 730 mmHg 61%
10:00 +28°C° 0 mm 1 mps 730 mmHg 55%
11:00 +30°C° 0 mm 1 mps 730 mmHg 49%
12:00 +32°C° 0 mm 2 mps 729 mmHg 44%
13:00 +34°C° 0 mm 2 mps 729 mmHg 40%
14:00 +34°C° 0 mm 2 mps 728 mmHg 37%
15:00 +35°C° 0 mm 2 mps 727 mmHg 34%
16:00 +32°C° 0 mm 2 mps 727 mmHg 41%
17:00 +30°C° 0 mm 1 mps 727 mmHg 47%
18:00 +28°C° 0 mm 1 mps 726 mmHg 54%
19:00 +27°C° 0 mm 1 mps 727 mmHg 54%
20:00 +24°C° 0 mm 0 mps 727 mmHg 55%
21:00 +23°C° 0 mm 0 mps 727 mmHg 55%
22:00 +22°C° 0 mm 0 mps 727 mmHg 56%
23:00 +22°C° 0 mm 0 mps 728 mmHg 57%

24 April, Saturday

Time Temperature Precipitation Wind Pressure Humidity
00:00 +21°C° 0 mm 0 mps 728 mmHg 58%
01:00 +21°C° 0 mm 0 mps 727 mmHg 60%
02:00 +20°C° 0 mm 0 mps 727 mmHg 62%
03:00 +20°C° 0 mm 0 mps 726 mmHg 64%
04:00 +20°C° 0 mm 0 mps 727 mmHg 66%
05:00 +19°C° 0 mm 0 mps 727 mmHg 67%
06:00 +19°C° 0 mm 0 mps 727 mmHg 68%
07:00 +21°C° 0 mm 0 mps 727 mmHg 64%
08:00 +22°C° 0 mm 0 mps 728 mmHg 60%
09:00 +24°C° 0 mm 0 mps 729 mmHg 57%
10:00 +28°C° 0 mm 1 mps 728 mmHg 52%
11:00 +30°C° 0 mm 1 mps 728 mmHg 48%
12:00 +32°C° 0 mm 1 mps 728 mmHg 44%
13:00 +33°C° 0 mm 1 mps 728 mmHg 42%
14:00 +33°C° 0 mm 1 mps 727 mmHg 41%
15:00 +34°C° 0 mm 1 mps 726 mmHg 40%
16:00 +32°C° 0 mm 1 mps 726 mmHg 45%
17:00 +31°C° 0 mm 1 mps 726 mmHg 51%
18:00 +29°C° 0 mm 1 mps 725 mmHg 57%
19:00 +29°C° 0 mm 1 mps 726 mmHg 58%
20:00 +28°C° 0 mm 1 mps 726 mmHg 59%
21:00 +27°C° 0 mm 1 mps 726 mmHg 60%
22:00 +26°C° 0 mm 1 mps 727 mmHg 62%
23:00 +26°C° 0 mm 1 mps 727 mmHg 64%
Show more